Location: Bukit Setapoh
(2.2500°N, 113.8000°E)
Time: 00:41:00
(UTC+00:00)

Lacrosse 4 Rocket - Pass Details

Date: 25 July 2021
Orbit: 542 x 615 km, 68.0° (Epoch: 22 September)

Event Time Altitude Azimuth Distance (km) Brightness Sun altitude
Rises 11:43:40 0° 320° (NW) 2,716 6.0 -16.2°
Reaches altitude 10° 11:46:08 10° 307° (NW) 1,835 5.2 -16.8°
Maximum altitude 11:49:31 25° 251° (WSW) 1,166 3.5 -17.6°
Drops below altitude 10° 11:52:58 10° 196° (SSW) 1,876 4.0 -18.4°
Enters shadow 11:54:53 - 185° (S) 2,551 4.5 -18.8°
